Date_and_time,latitude,longitude,wind_speed,RelWindDirFrom,WindDirFrom,air_pressure,air_temperature,relative_humidity,Temp,platform_speed_wrt_ground,air_pressure_at_mean_sea_level,platform_orientation
2018-07-11 00:00,50.6304516666667,-96.9807766666667,1.6,2.6,105,989.44,26.9,63,24.08,0.0,1014.92,179.7
2018-07-11 00:10,50.6304533333333,-96.9807766666667,2.7,3.5,72,989.17,26.4,70,24.13,0.0,1014.65,179.7
2018-07-11 00:20,50.6304533333333,-96.980775,3.7,4.3,73,988.89,26.6,68,24.23,0.0,1014.34,179.7
2018-07-11 00:30,50.6304166666667,-96.9807883333333,4.6,7.5,77,988.65,27.2,69,24.25,0.0,1014.07,179.7
2018-07-11 00:40,50.6304383333333,-96.9807716666667,6.4,7.8,73,988.43,26.9,72,24.42,0.0,1013.86,179.7
2018-07-11 00:50,50.6304416666667,-96.98077,6.0,6.7,80,988.20,26.9,70,24.41,0.0,1013.61,179.7
2018-07-11 01:00,50.630445,-96.98079,5.9,7.0,84,988.07,27.0,69,24.38,0.0,1013.47,181.2
2018-07-11 01:10,50.63044,-96.98077,5.7,7.1,87,988.09,27.1,70,24.30,0.0,1013.48,181.2
2018-07-11 01:20,50.63044,-96.98077,5.0,6.3,90,988.15,27.3,69,24.26,0.0,1013.52,181.2
2018-07-11 01:30,50.63044,-96.9807683333333,5.2,6.3,88,988.02,27.1,72,24.27,0.0,1013.40,181.2
2018-07-11 01:40,50.6304383333333,-96.9807683333333,4.7,6.6,87,988.21,26.9,73,24.37,0.0,1013.57,181.2
2018-07-11 01:50,50.6304383333333,-96.9807683333333,4.5,5.6,91,988.19,26.7,76,24.37,0.0,1013.54,181.2
2018-07-11 02:00,50.6304383333333,-96.9807683333333,4.6,5.8,87,988.34,26.2,78,24.32,0.0,1013.74,196.4
2018-07-11 02:10,50.6304416666667,-96.9807533333333,4.9,6.7,94,988.39,26.1,75,24.31,0.0,1013.79,196.4
2018-07-11 02:20,50.63045,-96.980795,7.4,8.3,105,988.28,26.2,68,24.28,0.0,1013.65,196.4
2018-07-11 02:30,50.6304533333333,-96.9807733333333,7.9,8.8,100,988.30,26.1,70,24.25,0.0,1013.68,196.4
2018-07-11 02:40,50.630445,-96.9807783333333,7.4,8.1,99,988.35,26.0,73,24.23,0.0,1013.74,196.4
2018-07-11 02:50,50.6304433333333,-96.9807783333333,7.3,8.1,96,988.32,25.9,73,24.22,0.0,1013.71,196.4
2018-07-11 03:00,50.6304416666667,-96.980775,8.5,10.1,96,988.40,26.0,69,24.21,0.0,1013.78,360.0
2018-07-11 03:10,50.630425,-96.980765,8.4,9.6,99,988.57,26.0,69,24.21,0.0,1013.95,360.0
2018-07-11 03:20,50.6304366666667,-96.980775,8.9,9.8,99,988.41,25.9,70,24.23,0.0,1013.80,360.0
2018-07-11 03:30,50.6304366666667,-96.9807733333333,8.6,9.8,98,988.20,25.8,74,24.23,0.0,1013.60,360.0
2018-07-11 03:40,50.6304366666667,-96.98077,9.3,11.8,96,988.08,25.7,71,24.26,0.0,1013.48,360.0
2018-07-11 03:50,50.630435,-96.98077,10.9,12.6,101,988.08,25.7,70,24.18,0.0,1013.50,360.0
2018-07-11 04:00,50.6304366666667,-96.9807683333333,13.6,16.7,113,988.06,25.8,65,24.24,0.0,1013.48,106.8
2018-07-11 04:10,50.630445,-96.98077,14.6,17.5,123,988.09,25.7,65,24.27,0.0,1013.51,106.8
2018-07-11 04:20,50.630445,-96.9807733333333,14.7,17.9,131,988.14,25.5,65,24.32,0.0,1013.58,106.8
2018-07-11 04:30,50.630445,-96.9807716666667,12.6,16.6,136,988.15,25.1,63,24.39,0.0,1013.61,106.8
2018-07-11 04:40,50.630445,-96.9807683333333,12.3,16.3,137,988.17,25.0,63,24.46,0.0,1013.64,106.8
2018-07-11 04:50,50.6304416666667,-96.98077,11.4,13.3,122,988.20,24.7,73,24.43,0.0,1013.68,106.8
2018-07-11 05:00,50.6304433333333,-96.9807683333333,11.9,13.8,126,988.11,24.4,74,24.42,0.0,1013.60,90.0
2018-07-11 05:10,50.6304433333333,-96.98077,11.1,13.4,135,988.17,24.1,73,24.41,0.0,1013.68,90.0
2018-07-11 05:20,50.6304533333333,-96.9807716666667,11.5,13.6,150,988.38,23.8,67,24.38,0.0,1013.91,90.0
2018-07-11 05:30,50.63045,-96.980765,12.2,14.9,145,988.50,23.8,65,24.36,0.0,1014.04,90.0
2018-07-11 05:40,50.63045,-96.980765,11.3,13.5,147,988.51,23.6,66,24.35,0.0,1014.06,90.0
2018-07-11 05:50,50.63045,-96.980765,11.5,13.3,145,988.32,23.5,66,24.34,0.0,1013.86,90.0
2018-07-11 06:00,50.6304483333333,-96.980765,10.0,13.0,138,988.10,23.6,69,24.32,0.0,1013.64,12.6
2018-07-11 06:10,50.6304483333333,-96.980765,9.9,14.0,138,987.79,23.4,69,24.31,0.0,1013.33,12.6
2018-07-11 06:20,50.630465,-96.980775,10.6,13.6,135,987.57,23.5,68,24.29,0.0,1013.12,12.6
2018-07-11 06:30,50.630445,-96.98076,12.6,15.3,126,987.25,23.7,69,24.28,0.0,1012.79,12.6
2018-07-11 06:40,50.630445,-96.9807616666667,11.8,13.6,122,987.23,23.5,71,24.26,0.0,1012.79,12.6
2018-07-11 06:50,50.6304466666667,-96.9807616666667,11.7,14.4,125,987.31,23.4,70,24.26,0.0,1012.89,12.6
2018-07-11 07:00,50.6304466666667,-96.9807633333333,11.7,15.3,137,987.48,23.1,68,24.25,0.0,1013.09,360.0
2018-07-11 07:10,50.6304466666667,-96.980765,10.9,13.9,149,987.40,22.7,67,24.25,0.0,1013.04,360.0
2018-07-11 07:20,50.630445,-96.9807666666667,13.5,17.1,148,987.26,22.8,63,24.24,0.0,1012.89,360.0
2018-07-11 07:30,50.6304433333333,-96.9807666666667,12.4,15.2,142,987.18,22.9,64,24.22,0.0,1012.82,360.0
2018-07-11 07:40,50.6304416666667,-96.9807666666667,13.0,16.3,144,986.91,22.8,64,24.21,0.0,1012.55,360.0
2018-07-11 07:50,50.6304416666667,-96.9807666666667,14.1,17.6,148,986.55,22.7,64,24.21,0.0,1012.18,360.0
2018-07-11 08:00,50.6304416666667,-96.9807666666667,13.6,16.6,148,986.67,22.6,68,24.19,0.0,1012.32,0.0
2018-07-11 08:10,50.63043,-96.980765,12.5,15.8,155,987.07,22.6,66,24.18,0.0,1012.72,0.0
2018-07-11 08:20,50.6304366666667,-96.9807666666667,12.5,16.6,150,987.18,22.6,65,24.15,0.0,1012.83,0.0
2018-07-11 08:30,50.6304416666667,-96.980765,12.2,15.5,158,987.58,22.5,66,24.15,0.0,1013.24,0.0
2018-07-11 08:40,50.6304466666667,-96.9807683333333,12.9,16.6,155,987.68,22.4,67,24.16,0.0,1013.37,0.0
2018-07-11 08:50,50.6304466666667,-96.9807716666667,13.1,16.1,154,987.47,22.3,68,24.16,0.0,1013.17,0.0
2018-07-11 09:00,50.6304466666667,-96.9807716666667,14.7,17.4,151,987.25,22.1,68,24.16,0.0,1012.97,270.0
2018-07-11 09:10,50.6304466666667,-96.9807733333333,13.1,16.1,141,986.85,22.1,71,24.16,0.0,1012.54,270.0
2018-07-11 09:20,50.6304466666667,-96.9807716666667,12.3,16.3,137,986.57,22.0,73,24.16,0.0,1012.26,270.0
2018-07-11 09:30,50.630445,-96.9807733333333,14.4,17.5,144,986.47,21.6,72,24.18,0.0,1012.18,270.0
2018-07-11 09:40,50.630445,-96.9807716666667,16.4,19.8,149,986.45,21.6,74,24.19,0.0,1012.16,270.0
2018-07-11 09:50,50.630445,-96.9807733333333,16.6,20.1,152,986.39,21.7,75,24.20,0.0,1012.10,270.0
2018-07-11 10:00,50.630445,-96.9807716666667,16.4,21.9,156,986.39,21.7,75,24.18,0.0,1012.10,192.6
2018-07-11 10:10,50.6304433333333,-96.9807733333333,17.6,21.7,150,986.06,21.6,74,24.16,0.0,1011.77,192.6
2018-07-11 10:20,50.6304383333333,-96.980765,21.9,35.4,104,983.41,21.9,81,24.13,0.0,1009.04,192.6
2018-07-11 10:30,50.63044,-96.9807683333333,28.8,34.8,98,980.87,21.5,85,24.11,0.0,1006.45,192.6
2018-07-11 10:40,50.63044,-96.9807633333333,29.5,36.2,109,981.29,21.9,81,24.12,0.0,1006.87,192.6
2018-07-11 10:50,50.6304333333333,-96.98076,28.7,34.2,107,980.75,22.2,80,24.12,0.0,1006.31,192.6
2018-07-11 11:00,50.6304216666667,-96.980785,27.0,32.4,110,980.67,22.3,81,24.10,0.0,1006.23,217.7
2018-07-11 11:10,50.6304416666667,-96.9807633333333,24.3,31.5,113,980.75,22.4,81,24.08,0.0,1006.31,217.7
2018-07-11 11:20,50.6304333333333,-96.9807566666667,23.3,29.6,115,980.87,22.6,80,24.05,0.0,1006.44,217.7
2018-07-11 11:30,50.6304433333333,-96.9807666666667,21.3,27.8,126,981.34,22.5,80,24.03,0.0,1006.93,217.7
2018-07-11 11:40,50.6304433333333,-96.9807716666667,19.8,26.6,138,981.58,21.9,82,23.99,0.0,1007.20,217.7
2018-07-11 11:50,50.630445,-96.9807733333333,18.5,22.8,143,981.70,21.8,83,23.96,0.0,1007.32,217.7
2018-07-11 12:00,50.6304466666667,-96.9807733333333,15.7,20.2,152,981.53,21.7,84,23.93,0.0,1007.16,0.0
2018-07-11 12:10,50.6304483333333,-96.9807733333333,15.2,19.3,163,981.45,21.8,83,23.91,0.0,1007.06,0.0
2018-07-11 12:20,50.6304483333333,-96.9807766666667,17.1,22.7,158,981.20,21.9,83,23.91,0.0,1006.82,0.0
2018-07-11 12:30,50.6304483333333,-96.9807966666667,18.0,22.5,156,981.16,21.9,83,23.87,0.0,1006.75,0.0
2018-07-11 12:40,50.630445,-96.9807783333333,18.6,24.1,159,981.24,21.8,83,23.86,0.0,1006.83,0.0
2018-07-11 12:50,50.630445,-96.980775,19.0,24.4,162,981.46,21.7,84,23.85,0.0,1007.06,0.0
2018-07-11 13:00,50.630445,-96.9807766666667,18.3,22.5,161,981.47,21.5,85,23.86,0.0,1007.07,0.0
2018-07-11 13:10,50.6304433333333,-96.9807766666667,17.0,21.2,163,981.62,21.6,85,23.85,0.0,1007.21,0.0
2018-07-11 13:20,50.630445,-96.9807766666667,16.5,20.5,170,982.01,21.6,85,23.82,0.0,1007.62,0.0
2018-07-11 13:30,50.6304466666667,-96.9807733333333,13.7,18.5,179,982.51,21.7,84,23.82,0.0,1008.15,0.0
2018-07-11 13:40,50.6304466666667,-96.9807733333333,11.5,14.8,173,982.63,21.8,81,23.84,0.0,1008.27,0.0
2018-07-11 13:50,50.6304483333333,-96.9807716666667,7.9,11.4,186,982.75,22.0,80,23.84,0.0,1008.40,0.0
2018-07-11 14:00,50.6304483333333,-96.98077,7.0,9.4,211,982.70,22.2,78,23.84,0.0,1008.33,27.2
2018-07-11 14:10,50.630445,-96.9807483333333,7.9,11.0,202,982.76,22.2,78,23.86,0.0,1008.38,27.2
2018-07-11 14:20,50.6304516666667,-96.9807666666667,11.4,15.7,200,982.74,21.9,81,23.93,0.0,1008.38,27.2
2018-07-11 14:30,50.630445,-96.9807616666667,9.8,13.7,194,982.68,21.7,83,23.93,0.0,1008.33,27.2
2018-07-11 14:40,50.630445,-96.980765,8.4,12.3,194,982.67,21.9,83,23.90,0.0,1008.32,27.2
2018-07-11 14:50,50.630445,-96.9807666666667,7.3,10.9,167,982.62,22.1,83,23.91,0.0,1008.26,27.2
2018-07-11 15:00,50.6304466666667,-96.980765,10.0,14.2,156,982.45,22.1,82,23.99,0.0,1008.09,90.0
2018-07-11 15:10,50.63047,-96.9807883333333,9.9,12.5,156,982.57,22.1,83,24.05,0.0,1008.21,90.0
2018-07-11 15:20,50.6304633333333,-96.9807733333333,11.5,15.5,150,982.48,22.2,83,24.11,0.0,1008.11,90.0
2018-07-11 15:30,50.630465,-96.9807916666667,12.0,14.0,149,982.39,22.2,84,24.16,0.0,1008.01,90.0
2018-07-11 15:40,50.63045,-96.9807683333333,11.8,15.1,149,982.61,22.2,85,24.15,0.0,1008.23,90.0
2018-07-11 15:50,50.6304483333333,-96.980765,11.8,14.1,146,982.73,22.2,87,24.10,0.0,1008.34,90.0
2018-07-11 16:00,50.63046,-96.980765,12.4,15.9,149,982.63,22.2,87,24.06,0.0,1008.24,360.0
2018-07-11 16:10,50.6304583333333,-96.980755,12.3,16.0,146,982.34,22.4,87,24.03,0.0,1007.95,360.0
2018-07-11 16:20,50.63046,-96.980765,11.6,14.5,153,982.36,22.4,87,24.05,0.0,1007.98,360.0
2018-07-11 16:30,50.6304616666667,-96.9807683333333,10.0,14.9,158,982.31,22.6,87,24.03,0.0,1007.91,360.0
2018-07-11 16:40,50.6304616666667,-96.9807666666667,14.1,18.6,156,981.93,22.9,84,23.99,0.0,1007.49,360.0
2018-07-11 16:50,50.6304616666667,-96.9807666666667,13.3,17.7,161,981.93,23.0,83,24.01,0.0,1007.49,360.0
2018-07-11 17:00,50.6304616666667,-96.9807666666667,12.8,16.4,158,981.91,23.0,85,23.98,0.0,1007.47,360.0
2018-07-11 17:10,50.63046,-96.9807666666667,14.2,17.1,148,981.47,23.0,85,23.97,0.0,1007.02,360.0
2018-07-11 17:20,50.6304633333333,-96.9807666666667,13.0,14.9,151,981.53,23.2,84,23.96,0.0,1007.07,360.0
2018-07-11 17:30,50.6304616666667,-96.9807666666667,12.4,15.2,151,981.57,23.1,86,23.97,0.0,1007.11,360.0
2018-07-11 17:40,50.6304566666667,-96.9807716666667,10.9,14.1,158,981.80,23.1,86,24.02,0.0,1007.35,360.0
2018-07-11 17:50,50.630455,-96.9807633333333,9.9,12.8,163,982.03,23.1,87,24.06,0.0,1007.59,360.0
2018-07-11 18:00,50.6304583333333,-96.9807633333333,9.7,11.8,176,982.31,23.2,86,24.02,0.0,1007.85,360.0
2018-07-11 18:10,50.6304583333333,-96.9807633333333,8.2,10.6,164,981.95,23.1,91,23.99,0.0,1007.49,360.0
2018-07-11 18:20,50.6304566666667,-96.980765,8.1,10.8,142,981.38,23.1,97,24.00,0.0,1006.90,360.0
2018-07-11 18:30,50.630455,-96.980765,11.4,13.3,124,980.57,23.8,96,24.01,0.0,1006.02,360.0
2018-07-11 18:40,50.630455,-96.9807666666667,11.8,13.7,119,980.06,24.0,97,23.98,0.0,1005.49,360.0
2018-07-11 18:50,50.6304533333333,-96.9807666666667,13.2,20.4,133,979.88,24.1,97,23.99,0.0,1005.30,360.0
2018-07-11 19:00,50.63044,-96.9807766666667,16.0,20.9,137,979.23,24.1,95,24.01,0.0,1004.63,203.5
2018-07-11 19:10,50.6304283333333,-96.9807583333333,17.1,21.3,146,978.93,23.7,96,24.02,0.0,1004.33,203.5
2018-07-11 19:20,50.630495,-96.980825,15.4,20.6,154,979.14,23.6,97,24.02,0.0,1004.56,203.5
2018-07-11 19:30,50.6304483333333,-96.980755,12.8,16.8,163,979.59,23.7,97,24.03,0.0,1005.01,203.5
2018-07-11 19:40,50.630435,-96.9807516666667,13.8,17.6,174,979.93,24.0,95,24.03,0.0,1005.35,203.5
2018-07-11 19:50,50.63044,-96.980755,13.3,17.4,181,980.19,24.5,91,24.03,0.0,1005.59,203.5
2018-07-11 20:00,50.6304466666667,-96.980755,14.2,20.3,189,980.32,24.9,88,24.04,0.0,1005.71,360.0
2018-07-11 20:10,50.63045,-96.9807566666667,15.0,21.7,191,980.28,25.0,87,24.06,0.0,1005.67,360.0
2018-07-11 20:20,50.630455,-96.98075,11.0,16.9,196,980.37,25.0,90,24.06,0.0,1005.73,360.0
2018-07-11 20:30,50.6304616666667,-96.9807666666667,10.5,14.0,195,980.27,25.0,92,24.06,0.0,1005.62,360.0
2018-07-11 20:40,50.6304616666667,-96.98077,11.8,16.3,197,980.20,25.2,89,24.06,0.0,1005.53,360.0
2018-07-11 20:50,50.6304583333333,-96.9807733333333,11.1,14.9,194,980.24,25.4,89,24.10,0.0,1005.57,360.0
2018-07-11 21:00,50.6304583333333,-96.9807733333333,12.0,15.7,194,980.39,25.5,89,24.13,0.0,1005.73,270.0
2018-07-11 21:10,50.6304583333333,-96.9807766666667,10.6,14.4,191,980.32,25.4,90,24.18,0.0,1005.67,270.0
2018-07-11 21:20,50.6304266666667,-96.980785,10.4,14.8,189,980.14,25.2,90,24.14,0.0,1005.49,270.0
2018-07-11 21:30,50.6304383333333,-96.98078,9.4,13.5,184,979.94,25.1,92,24.13,0.0,1005.27,270.0
2018-07-11 21:40,50.63044,-96.9807816666667,8.9,11.2,171,979.42,25.2,90,24.19,0.0,1004.71,270.0
2018-07-11 21:50,50.6304483333333,-96.98074,11.7,15.1,184,979.62,25.4,90,24.23,0.0,1004.90,270.0
2018-07-11 22:00,50.63045,-96.9807516666667,11.9,17.2,191,979.54,25.8,87,24.21,0.0,1004.79,49.4
2018-07-11 22:10,50.630445,-96.980765,13.7,18.0,189,979.42,25.7,85,24.24,0.0,1004.67,49.4
2018-07-11 22:20,50.6304466666667,-96.9807416666667,12.4,16.6,192,979.49,25.7,86,24.30,0.0,1004.74,49.4
2018-07-11 22:30,50.6304583333333,-96.9807683333333,13.4,20.2,185,979.52,25.8,84,24.32,0.0,1004.76,49.4
2018-07-11 22:40,50.63048,-96.9807566666667,14.9,18.7,181,979.49,26.0,81,24.35,0.0,1004.72,49.4
2018-07-11 22:50,50.6304616666667,-96.9807633333333,13.4,18.2,184,979.56,25.9,82,24.35,0.0,1004.79,49.4
2018-07-11 23:00,50.63046,-96.9807716666667,11.5,15.9,186,979.53,25.8,84,24.31,0.0,1004.76,323.4
2018-07-11 23:10,50.6304466666667,-96.9807333333333,10.9,14.8,189,979.47,25.7,85,24.34,0.0,1004.72,323.4
2018-07-11 23:20,50.6304533333333,-96.98076,10.6,13.1,187,979.37,25.7,87,24.35,0.0,1004.61,323.4
2018-07-11 23:30,50.63046,-96.9807583333333,10.9,14.3,189,979.34,25.9,86,24.37,0.0,1004.57,323.4
2018-07-11 23:40,50.6304633333333,-96.9807583333333,11.3,18.6,186,979.23,26.4,84,24.37,0.0,1004.43,323.4
